Cooperstown, ND

2:32 PM CDT on June 25, 2017 (GMT -0500)
Cooperstown

Weather History for KS32 - November, 2012

Change the Weather History Date:

Saturday, November 17, 2012

  Actual Average (KJMS) Record (KJMS)
Temperature  
Mean Temperature 32 °F -  
Max Temperature 39 °F 35 °F 70 °F (1953)
Min Temperature 26 °F 18 °F -9 °F (1911)
Degree Days  
Heating Degree Days 32    
Moisture  
Dew Point 31 °F    
Average Humidity 98    
Maximum Humidity 100    
Minimum Humidity 87    
Precipitation  
Precipitation 0.00 in - - ()
Sea Level Pressure  
Sea Level Pressure 30.02 in    
Wind  
Wind Speed 5 mph (East)    
Max Wind Speed 10 mph    
Max Gust Speed -    
Visibility 8 miles    
Events Thunderstorm    
Averages and records for this station are not official NWS values.
T = Trace of Precipitation, MM = Missing Value Source: NWS Daily Summary

Daily Weather History Graph

Daily Weather History Graph

Search for Another Location

Airport or City:

Trip Planner

Search our weather history database for the weather conditions in past years. The results will help you decide how hot, cold, wet, or windy it might be!

Date:

Astronomy

Nov. 17, 2012 Rise Set
Actual Time 7:40 AM CST 4:53 PM CST
Civil Twilight 7:07 AM CST 5:27 PM CST
Nautical Twilight 6:29 AM CST 6:04 PM CST
Astronomical Twilight 5:53 AM CST 6:41 PM CST
Moon 11:26 AM CST (11/17) 9:06 PM CST (11/17)
Length of Visible Light 10h 20m
Length of Day
9h 13m
Waxing Crescent, 20% of the Moon is Illuminated
Nov 17
Waxing Crescent
Nov 20
First Quarter
Nov 28
Full
Dec 6
Last Quarter
Dec 13
New

Hourly Weather History & Observations

Time (CST) Temp. Windchill Dew Point Humidity Pressure Visibility Wind Dir Wind Speed Gust Speed Precip Events Conditions
12:15 AM 28.4 °F 20.4 °F 28.4 °F 100% 30.01 in 10.0 mi South 8.1 mph - N/A   Clear
12:35 AM 30.2 °F 21.9 °F 28.4 °F 93% 30.01 in 10.0 mi South 9.2 mph - N/A   Clear
12:55 AM 30.2 °F 22.6 °F 28.4 °F 93% 30.01 in 10.0 mi South 8.1 mph - N/A   Clear
1:15 AM 30.2 °F 23.4 °F 28.4 °F 93% 30.00 in 10.0 mi South 6.9 mph - N/A   Clear
1:35 AM 28.4 °F 22.2 °F 28.4 °F 100% 30.00 in 10.0 mi South 5.8 mph - N/A   Clear
1:55 AM 28.4 °F 22.2 °F 28.4 °F 100% 30.00 in 10.0 mi South 5.8 mph - N/A   Clear
2:15 AM 28.4 °F 21.2 °F 28.4 °F 100% 30.01 in 10.0 mi South 6.9 mph - N/A   Clear
2:35 AM 30.2 °F 23.4 °F 30.2 °F 100% 30.02 in 10.0 mi SSW 6.9 mph - N/A   Clear
2:55 AM 28.4 °F 23.3 °F 28.4 °F 100% 30.01 in 10.0 mi SSW 4.6 mph - N/A   Clear
3:15 AM 28.4 °F 22.2 °F 28.4 °F 100% 30.01 in 10.0 mi South 5.8 mph - N/A   Clear
3:35 AM 30.2 °F 26.7 °F 30.2 °F 100% 30.01 in 10.0 mi South 3.5 mph - N/A   Clear
3:55 AM 30.2 °F 24.3 °F 30.2 °F 100% 30.00 in 10.0 mi South 5.8 mph - N/A   Clear
4:15 AM 30.2 °F 26.7 °F 30.2 °F 100% 30.00 in 10.0 mi South 3.5 mph - N/A   Clear
4:35 AM 30.2 °F 26.7 °F 30.2 °F 100% 30.00 in 10.0 mi South 3.5 mph - N/A   Clear
4:55 AM 28.4 °F - 28.4 °F 100% 30.01 in 9.0 mi Calm Calm - N/A   Clear
5:15 AM 28.4 °F 23.3 °F 28.4 °F 100% 30.01 in 8.0 mi SE 4.6 mph - N/A   Clear
5:35 AM 28.4 °F 24.6 °F 28.4 °F 100% 30.02 in 8.0 mi SSW 3.5 mph - N/A   Clear
5:55 AM 26.6 °F - 26.6 °F 100% 30.01 in 7.0 mi Calm Calm - N/A   Clear
6:15 AM 26.6 °F - 26.6 °F 100% 30.01 in 7.0 mi Calm Calm - N/A   Mostly Cloudy
6:35 AM 26.6 °F - 26.6 °F 100% 30.01 in 7.0 mi Calm Calm - N/A   Overcast
6:55 AM 26.6 °F 21.2 °F 26.6 °F 100% 30.02 in 7.0 mi SW 4.6 mph - N/A   Mostly Cloudy
7:15 AM 28.4 °F 24.6 °F 28.4 °F 100% 30.02 in 7.0 mi West 3.5 mph - N/A   Mostly Cloudy
7:35 AM 28.4 °F 23.3 °F 28.4 °F 100% 30.02 in 5.0 mi WNW 4.6 mph - N/A   Mostly Cloudy
7:55 AM 26.6 °F - 26.6 °F 100% 30.02 in 5.0 mi Calm Calm - N/A   Overcast
8:15 AM 28.4 °F 24.6 °F 28.4 °F 100% 30.04 in 5.0 mi South 3.5 mph - N/A   Overcast
8:35 AM 28.4 °F - 28.4 °F 100% 30.04 in 5.0 mi Calm Calm - N/A   Overcast
8:55 AM 30.2 °F - 30.2 °F 100% 30.04 in 5.0 mi Calm Calm - N/A   Overcast
9:15 AM 30.2 °F - 30.2 °F 100% 30.04 in 5.0 mi Calm Calm - N/A Thunderstorm Scattered Clouds
9:35 AM 32.0 °F - 32.0 °F 100% 30.05 in 8.0 mi Calm Calm - N/A   Clear
9:55 AM 32.0 °F 28.7 °F 32.0 °F 100% 30.05 in 8.0 mi NE 3.5 mph - N/A   Partly Cloudy
10:15 AM 32.0 °F 27.5 °F 32.0 °F 100% 30.05 in 8.0 mi East 4.6 mph - N/A   Clear
10:35 AM 32.0 °F 28.7 °F 32.0 °F 100% 30.06 in 9.0 mi NNE 3.5 mph - N/A   Clear
11:55 AM 35.6 °F 31.7 °F 33.8 °F 93% 30.05 in 10.0 mi ENE 4.6 mph - N/A   Scattered Clouds
12:15 PM 37.4 °F 33.8 °F 33.8 °F 87% 30.04 in 10.0 mi East 4.6 mph - N/A   Overcast
12:35 PM 37.4 °F 32.8 °F 35.6 °F 93% 30.03 in 10.0 mi ENE 5.8 mph - N/A   Scattered Clouds
12:55 PM 37.4 °F 32.1 °F 35.6 °F 93% 30.03 in 10.0 mi ENE 6.9 mph - N/A   Mostly Cloudy
1:15 PM 39.2 °F 33.0 °F 35.6 °F 87% 30.03 in 10.0 mi East 9.2 mph - N/A   Mostly Cloudy
1:35 PM 37.4 °F 30.8 °F 35.6 °F 93% 30.03 in 10.0 mi East 9.2 mph - N/A   Mostly Cloudy
1:55 PM 39.2 °F 33.0 °F 35.6 °F 87% 30.02 in 10.0 mi East 9.2 mph - N/A   Overcast
2:15 PM 37.4 °F 31.4 °F 35.6 °F 93% 30.02 in 10.0 mi East 8.1 mph - N/A   Overcast
2:35 PM 37.4 °F 30.8 °F 35.6 °F 93% 30.02 in 10.0 mi East 9.2 mph - N/A   Mostly Cloudy
2:55 PM 37.4 °F 30.8 °F 35.6 °F 93% 30.02 in 10.0 mi East 9.2 mph - N/A   Mostly Cloudy
3:15 PM 35.6 °F 28.6 °F 35.6 °F 100% 30.03 in 10.0 mi ESE 9.2 mph - N/A   Overcast
3:35 PM 35.6 °F 29.2 °F 35.6 °F 100% 30.04 in 10.0 mi ESE 8.1 mph - N/A   Overcast
3:55 PM 35.6 °F 29.9 °F 35.6 °F 100% 30.04 in 9.0 mi ESE 6.9 mph - N/A   Scattered Clouds
4:15 PM 35.6 °F 28.0 °F 35.6 °F 100% 30.04 in 9.0 mi East 10.4 mph - N/A   Clear
4:35 PM 33.8 °F 27.7 °F 33.8 °F 100% 30.04 in 8.0 mi ESE 6.9 mph - N/A   Mostly Cloudy
4:55 PM 33.8 °F 27.7 °F 33.8 °F 100% 30.03 in 8.0 mi East 6.9 mph - N/A   Mostly Cloudy
5:15 PM 32.0 °F 27.5 °F 32.0 °F 100% 30.04 in 8.0 mi NE 4.6 mph - N/A   Mostly Cloudy
5:35 PM 32.0 °F 27.5 °F 32.0 °F 100% 30.04 in 9.0 mi NE 4.6 mph - N/A   Mostly Cloudy
6:15 PM 32.0 °F 27.5 °F 32.0 °F 100% 30.03 in 7.0 mi ENE 4.6 mph - N/A   Scattered Clouds
6:35 PM 32.0 °F 27.5 °F 32.0 °F 100% 30.03 in 7.0 mi East 4.6 mph - N/A   Partly Cloudy
6:55 PM 32.0 °F 27.5 °F 32.0 °F 100% 30.03 in 6.0 mi East 4.6 mph - N/A   Mostly Cloudy
7:15 PM 32.0 °F 27.5 °F 32.0 °F 100% 30.03 in 6.0 mi East 4.6 mph - N/A   Scattered Clouds
7:35 PM 32.0 °F 28.7 °F 32.0 °F 100% 30.03 in 7.0 mi NE 3.5 mph - N/A   Mostly Cloudy
7:55 PM 32.0 °F 27.5 °F 32.0 °F 100% 30.03 in 7.0 mi East 4.6 mph - N/A   Mostly Cloudy
8:15 PM 32.0 °F 27.5 °F 32.0 °F 100% 30.02 in 6.0 mi ENE 4.6 mph - N/A   Partly Cloudy
8:35 PM 32.0 °F 28.7 °F 32.0 °F 100% 30.02 in 6.0 mi NE 3.5 mph - N/A   Mostly Cloudy
8:55 PM 32.0 °F 28.7 °F 32.0 °F 100% 30.02 in 6.0 mi ENE 3.5 mph - N/A   Mostly Cloudy
9:15 PM 32.0 °F 28.7 °F 32.0 °F 100% 30.02 in 7.0 mi NE 3.5 mph - N/A   Scattered Clouds
9:35 PM 32.0 °F - 32.0 °F 100% 30.01 in 7.0 mi Calm Calm - N/A   Partly Cloudy
9:55 PM 32.0 °F 27.5 °F 32.0 °F 100% 30.01 in 5.0 mi NE 4.6 mph - N/A   Clear
10:15 PM 32.0 °F 27.5 °F 32.0 °F 100% 30.01 in 5.0 mi NE 4.6 mph - N/A   Clear
10:35 PM 32.0 °F 26.4 °F 32.0 °F 100% 30.00 in 5.0 mi NNE 5.8 mph - N/A   Clear
10:55 PM 30.2 °F 23.4 °F 30.2 °F 100% 30.00 in 4.0 mi NNE 6.9 mph - N/A   Clear
11:15 PM 30.2 °F 24.3 °F 30.2 °F 100% 30.00 in 5.0 mi NNE 5.8 mph - N/A   Clear
11:35 PM 30.2 °F 24.3 °F 30.2 °F 100% 30.00 in 5.0 mi NE 5.8 mph - N/A   Clear
11:55 PM 30.2 °F 24.3 °F 30.2 °F 100% 29.99 in 5.0 mi NE 5.8 mph - N/A   Clear